Location: Six Mile Lake
(44.9000°N, 79.7170°W)
Time: 02:17:08
(UTC-04:00)

STRAND 1 - Pass Details

Date: 04 July 2022
Orbit: 767 x 781 km, 98.4° (Epoch: 09 August)

Event Time Altitude Azimuth Distance (km) Brightness Sun altitude
Rises 22:18:38 0° 355° (N) 3,268 ? -10.3°
Reaches altitude 10° 22:22:44 10° 322° (NW) 2,331 ? -10.8°
Maximum altitude 22:24:14 11° 305° (NW) 2,238 ? -10.9°
Drops below altitude 10° 22:25:45 10° 288° (WNW) 2,324 ? -11.1°
Sets 22:29:50 0° 255° (WSW) 3,241 ? -11.6°
